Location: Blanot
(47.1713°N, 4.2340°E)
Time: 21:09:19
(UTC+00:00)

Cosmos 1697 Rocket - Pass Details

Date: 14 July 2020
Orbit: 834 x 842 km, 71.0° (Epoch: 14 August)

Event Time Altitude Azimuth Distance (km) Brightness Sun altitude
Rises 02:08:16 0° 329° (NNW) 3,397 6.2 -14.4°
Reaches altitude 10° 02:10:45 10° 326° (NW) 2,458 5.4 -14.2°
Maximum altitude 02:16:16 57° 249° (WSW) 982 2.8 -13.6°
Drops below altitude 10° 02:21:43 10° 172° (S) 2,438 4.7 -13.1°
Enters shadow 02:22:28 - 171° (S) 2,721 4.9 -13.0°
